| time (UTC) | temp F | wind direction | speed knots | gust knots | rain 1hr in | rain 24hr in | rain mn in | humidity % | barometer mb |
| 20260507020918 | 44 | 0 | 1.7 | 4.3 | 0.00 | 0.00 | 0.00 | 10 | 1009.6 |
| 20260507020222 | 44 | 0 | 0.9 | 2.6 | 0.00 | 0.00 | 0.00 | 10 | 1009.6 |
| 20260507015526 | 43 | 0 | 0.9 | 1.7 | 0.00 | 0.00 | 0.00 | 10 | 1009.6 |
| 20260507014830 | 44 | 0 | 0.0 | 0.9 | 0.00 | 0.00 | 0.00 | 10 | 1009.8 |
| 20260507014135 | 44 | 0 | 0.0 | 0.9 | 0.00 | 0.00 | 0.00 | 10 | 1009.9 |
| 20260507013439 | 44 | 0 | 0.0 | 0.9 | 0.00 | 0.00 | 0.00 | 10 | 1009.8 |
| 20260507012743 | 44 | 0 | 0.9 | 0.9 | 0.00 | 0.00 | 0.00 | 10 | 1009.7 |
| 20260507012047 | 44 | 0 | 0.9 | 1.7 | 0.00 | 0.00 | 0.00 | 10 | 1009.5 |
| 20260507011351 | 44 | 0 | 0.9 | 1.7 | 0.00 | 0.00 | 0.00 | 10 | 1009.5 |
| 20260507010655 | 44 | 0 | 0.9 | 1.7 | 0.00 | 0.00 | 0.00 | 10 | 1009.3 |
| 20260507005959 | 44 | 0 | 0.9 | 0.9 | 0.00 | 0.00 | 0.00 | 10 | 1009.1 |
| 20260507005305 | 44 | 0 | 0.0 | 0.9 | 0.00 | 0.00 | 0.00 | 10 | 1009.2 |
| 20260507004608 | 44 | 0 | 0.9 | 2.6 | 0.00 | 0.00 | 0.00 | 10 | 1009.3 |
| 20260507003912 | 44 | 0 | 0.9 | 1.7 | 0.00 | 0.00 | 0.00 | 10 | 1009.0 |
| 20260507003216 | 44 | 0 | 0.9 | 2.6 | 0.00 | 0.00 | 0.00 | 10 | 1008.8 |
| 20260507002520 | 44 | 0 | 0.9 | 2.6 | 0.00 | 0.00 | 0.00 | 10 | 1008.7 |
| 20260507001824 | 44 | 0 | 0.9 | 1.7 | 0.00 | 0.00 | 0.00 | 10 | 1008.9 |
| 20260507001128 | 44 | 0 | 0.9 | 1.7 | 0.00 | 0.00 | 0.00 | 10 | 1008.9 |
| 20260507000434 | 44 | 0 | 0.9 | 1.7 | 0.00 | 0.00 | 0.00 | 10 | 1009.0 |
| 20260506235040 | 44 | 0 | 0.9 | 1.7 | 0.00 | 0.00 | 0.00 | 10 | 1009.1 |
| 20260506234344 | 44 | 0 | 1.7 | 3.5 | 0.00 | 0.00 | 0.00 | 10 | 1009.3 |
| 20260506233648 | 44 | 0 | 1.7 | 3.5 | 0.00 | 0.00 | 0.00 | 10 | 1009.3 |
| 20260506232953 | 45 | 0 | 1.7 | 3.5 | 0.00 | 0.00 | 0.00 | 10 | 1009.2 |
| 20260506232257 | 45 | 0 | 1.7 | 2.6 | 0.00 | 0.00 | 0.00 | 10 | 1009.3 |
| 20260506231601 | 45 | 0 | 0.9 | 1.7 | 0.00 | 0.00 | 0.00 | 10 | 1009.4 |
| 20260506230905 | 45 | 0 | 0.9 | 1.7 | 0.00 | 0.00 | 0.00 | 10 | 1009.3 |
| 20260506230209 | 45 | 0 | 1.7 | 4.3 | 0.00 | 0.00 | 0.00 | 10 | 1009.5 |
| 20260506225513 | 45 | 0 | 0.9 | 3.5 | 0.00 | 0.00 | 0.00 | 10 | 1009.2 |
| 20260506224817 | 46 | 0 | 0.9 | 2.6 | 0.00 | 0.00 | 0.00 | 10 | 1009.3 |
| 20260506224121 | 46 | 0 | 0.9 | 1.7 | 0.00 | 0.00 | 0.00 | 10 | 1009.2 |
| 20260506223425 | 46 | 0 | 0.9 | 2.6 | 0.00 | 0.00 | 0.00 | 10 | 1009.0 |
| 20260506222729 | 46 | 0 | 0.9 | 1.7 | 0.00 | 0.00 | 0.00 | 10 | 1008.9 |
| 20260506222033 | 46 | 0 | 0.9 | 1.7 | 0.00 | 0.00 | 0.00 | 10 | 1008.8 |
| 20260506221336 | 32 | 0 | 0.0 | 0.0 | 0.00 | 0.00 | 0.00 | ||
| 20260506214939 | 45 | 0 | 1.7 | 3.5 | 0.00 | 0.00 | 0.00 | 10 | 1008.3 |
| 20260506214243 | 32 | 0 | 0.0 | 0.0 | 0.00 | 0.00 | 0.00 | ||
| 20260506211406 | 44 | 0 | 1.7 | 2.6 | 0.00 | 0.00 | 0.00 | 10 | 1008.4 |
| 20260506210710 | 44 | 0 | 1.7 | 2.6 | 0.00 | 0.00 | 0.00 | 10 | 1008.4 |
| 20260506205318 | 45 | 0 | 1.7 | 2.6 | 0.00 | 0.00 | 0.00 | 10 | 1008.4 |
| 20260506204622 | 44 | 0 | 0.9 | 2.6 | 0.00 | 0.00 | 0.00 | 10 | 1008.4 |
| 20260506203926 | 44 | 0 | 1.7 | 2.6 | 0.00 | 0.00 | 0.00 | 10 | 1008.5 |
| 20260506203230 | 44 | 0 | 1.7 | 2.6 | 0.00 | 0.00 | 0.00 | 10 | 1008.5 |
| 20260506202534 | 44 | 0 | 0.9 | 2.6 | 0.00 | 0.00 | 0.00 | 10 | 1008.4 |
| 20260506201838 | 45 | 0 | 0.9 | 2.6 | 0.00 | 0.00 | 0.00 | 10 | 1008.4 |
| 20260506201142 | 45 | 0 | 0.9 | 2.6 | 0.00 | 0.00 | 0.00 | 10 | 1008.2 |
| 20260506200446 | 45 | 0 | 0.9 | 3.5 | 0.00 | 0.00 | 0.00 | 10 | 1008.2 |
| 20260506195750 | 32 | 0 | 0.0 | 0.0 | 0.00 | 0.00 | 0.00 | ||
| 20260506080713 | 47 | 0 | 3.5 | 4.3 | 0.00 | 0.00 | 0.00 | 10 | 1009.1 |
| 20260506073232 | 46 | 0 | 4.3 | 7.0 | 0.00 | 0.00 | 0.00 | 10 | 1008.7 |
| 20260506072537 | 45 | 0 | 2.6 | 5.2 | 0.00 | 0.00 | 0.00 | 10 | 1008.7 |
| 20260506071840 | 45 | 0 | 3.5 | 5.2 | 0.00 | 0.00 | 0.00 | 10 | 1008.5 |
| 20260506071144 | 45 | 0 | 4.3 | 6.1 | 0.00 | 0.00 | 0.00 | 10 | 1008.4 |
| 20260506070448 | 45 | 0 | 4.3 | 7.0 | 0.00 | 0.00 | 0.00 | 10 | 1008.5 |
| 20260506062312 | 45 | 0 | 4.3 | 7.0 | 0.00 | 0.00 | 0.00 | 10 | 1008.2 |
| 20260506061616 | 45 | 0 | 4.3 | 6.1 | 0.00 | 0.00 | 0.00 | 10 | 1008.2 |
| 20260506060920 | 45 | 0 | 4.3 | 6.1 | 0.00 | 0.00 | 0.00 | 10 | 1007.9 |
| 20260506060224 | 45 | 0 | 4.3 | 6.1 | 0.00 | 0.00 | 0.00 | 10 | 1008.2 |
| 20260506051352 | 46 | 0 | 4.3 | 0.0 | 0.00 | 0.00 | 0.00 | 10 | 1007.9 |
| 20260506050656 | 46 | 0 | 4.3 | 7.0 | 0.00 | 0.00 | 0.00 | 10 | 1007.8 |
| 20260506044608 | 46 | 0 | 4.3 | 7.0 | 0.00 | 0.00 | 0.00 | 10 | 1007.7 |
| 20260506043912 | 46 | 0 | 0.0 | 0.0 | 0.00 | 0.00 | 0.00 | 10 | 1007.6 |
| 20260506043043 | 32 | 0 | 0.0 | 0.0 | 0.00 | 0.00 | 0.00 | ||
| 20260506035504 | 44 | 0 | 3.5 | 5.2 | 0.00 | 0.00 | 0.00 | 10 | 1007.3 |
| 20260506034808 | 44 | 0 | 3.5 | 4.3 | 0.00 | 0.00 | 0.00 | 10 | 1007.4 |
| 20260506034112 | 44 | 0 | 2.6 | 4.3 | 0.00 | 0.00 | 0.00 | 10 | 1007.3 |
| 20260506033416 | 44 | 0 | 3.5 | 5.2 | 0.00 | 0.00 | 0.00 | 10 | 1007.3 |
| 20260506032720 | 44 | 0 | 2.6 | 4.3 | 0.00 | 0.00 | 0.00 | 10 | 1007.4 |
| 20260506030633 | 43 | 0 | 2.6 | 3.5 | 0.00 | 0.00 | 0.00 | 10 | 1007.3 |
| 20260506025937 | 43 | 0 | 2.6 | 3.5 | 0.00 | 0.00 | 0.00 | 10 | 1007.1 |
| 20260506025241 | 43 | 0 | 2.6 | 3.5 | 0.00 | 0.00 | 0.00 | 10 | 1007.1 |
| 20260506024545 | 43 | 0 | 2.6 | 3.5 | 0.00 | 0.00 | 0.00 | 10 | 1007.1 |
| 20260506023849 | 44 | 0 | 2.6 | 4.3 | 0.00 | 0.00 | 0.00 | 10 | 1007.1 |
| 20260506023153 | 44 | 0 | 2.6 | 3.5 | 0.00 | 0.00 | 0.00 | 10 | 1007.1 |
| 20260506022457 | 46 | 0 | 2.6 | 4.3 | 0.00 | 0.00 | 0.00 | 10 | 1007.2 |
| 20260506021801 | 45 | 0 | 2.6 | 4.3 | 0.00 | 0.00 | 0.00 | 10 | 1006.9 |